Location: Владивосток
(43.1151°N, 131.8856°E)
Time: 01:55:21
(UTC+10:00)

FO-29 - Pass Details

Date: 26 April 2024
Orbit: 801 x 1320 km, 98.6° (Epoch: 19 May)

Event Time Altitude Azimuth Distance (km) Brightness Sun altitude
Rises 04:58:48 0° 2° (N) 4,199 13.3 -13.0°
Reaches altitude 10° 05:02:08 10° 348° (NNW) 3,283 12.5 -12.5°
Maximum altitude 05:07:31 21° 304° (WNW) 2,566 11.5 -11.7°
Enters shadow 05:12:48 11° 260° (W) 3,296 11.7 -10.8°
